Regional Weather Roundup
Issued by NWS Kansas City/Pleasant Hill, MO

Home | Current Version | Previous Version | Graphics & Text | Print | Product List | Glossary Off
Versions: 1 2 3 4 5 6 7 8 9 10 11 12 13 14 15 16 17 18 19 20 21 22 23 24 25 26 27

000
ASUS43 KEAX 271110
RWREAX

WEATHER ROUNDUP FOR EASTERN KANSAS AND NORTHWEST MISSOURI
NATIONAL WEATHER SERVICE KANSAS CITY/PLEASANT HILL MO
600 AM CDT SAT MAY 27 2017

KSZ040-057-103>105-MOZ028-029-037-043-271200-
...KANSAS CITY METROPOLITAN AREA...

CITY           SKY/WX    TMP DP  RH WIND       PRES   REMARKS
K.C. INTL      PTCLDY    68  64  87 SE9       29.82S
K.C. DOWNTOWN  CLEAR     67  65  93 E5        29.81S
LEES SUMMIT    CLEAR     66  65  96 SE5       29.82F
OLATHE - IXD   CLEAR     66  64  93 E5        29.82S
OLATHE - OJC   CLEAR     65  65 100 E7        29.82S
LAWRENCE       CLEAR     64  64 100 SE6       29.81R

$$

MOZ001>008-011>017-020>025-030>033-038>040-044>046-053-054-271200-
...NORTHERN AND CENTRAL MISSOURI...

CITY           SKY/WX    TMP DP  RH WIND       PRES   REMARKS
ST. JOSEPH     CLOUDY    63  62  97 CALM      29.83R
MOSBY          SUNNY     63  63 100 E3        29.82S
WARRENSBURG    FOG       61  61 100 E5        29.83S VSB 3/4
WHITEMAN AFB   PTCLDY    66  66 100 E5        29.83S
CLINTON        CLEAR     64  64 100 NE5       29.82F FOG
SEDALIA        CLEAR     66  66 100 E3        29.86R FOG
WARSAW         NOT AVBL
CHILLICOTHE      N/A     64  62  93 CALM      29.85F
KIRKSVILLE     CLOUDY    59  58  96 E5        29.87F FOG

$$

MOZ041-047>049-056>058-063>065-088>090-097-271200-
...EASTERN AND SOUTHERN MISSOURI...

CITY           SKY/WX    TMP DP  RH WIND       PRES   REMARKS
ST. LOUIS INTL PTCLDY    69  64  84 N3        29.86R
SPIRIT OF STL  PTCLDY    65  65 100 S3        29.85R FOG
COLUMBIA       PTCLDY    66  65  96 E7        29.86R
JEFFERSON CITY PTCLDY    66  63  90 CALM      29.85R FOG
ROLLA          FOG       65  65 100 E7        29.85R VSB 1/2
OSAGE BEACH    FOG       64  64 100 NE5       29.85R VSB 3/4
SPRINGFIELD    CLEAR     69  68  96 SE7       29.82R FOG
BRANSON        PTCLDY    64  61  88 CALM      29.85R
JOPLIN         CLEAR     73  71  93 S7        29.79S
WEST PLAINS    CLOUDY    70  69  97 SE5       29.87R FOG

$$

IAZ060-094-KSZ022-034>040-054-083-096-NEZ052-066-093-271200-
...KANSAS...SOUTHEAST NEBRASKA AND IOWA...

CITY           SKY/WX    TMP DP  RH WIND       PRES   REMARKS
TOPEKA         CLOUDY    64  64 100 CALM      29.80R
MANHATTAN      TSTM      60  58  92 VRB5G21   29.94R VSB 1
EMPORIA        CLOUDY    62  62 100 CALM      29.79R
CHANUTE        PTCLDY    68  65  90 E3        29.78R
WICHITA        PTCLDY    69  65  86 N7        29.82R
OMAHA          CLOUDY    56  49  77 NW6       29.88R
LINCOLN        CLOUDY    62  47  57 NE3       29.88S
FALLS CITY     CLOUDY    64  53  67 NE6       29.83R
LAMONI         CLOUDY    60  59  96 NE5       29.86F FOG
DES MOINES     FOG       61  59  93 E6        29.87S VSB 1

$$





USA.gov is the U.S. government's official web portal to all federal, state and local government web resources and services.